User: anonymous   Login
Location: Fort Wayne
(41.1310°N, 85.1290°W)
Time: 22:12:29
(UTC-05:00)
Language:

OAO 2 Rocket - Orbit

View from above orbital plane
View from above orbital plane
View from above satellite
View from above satellite

Ground track
Ground track

The orbit data is extracted from the following two-line orbital elements,

1 03598U 68110B   14352.54232508  .00000828  00000-0  19611-3 0  7879
2 03598 034.9946 083.8883 0049286 034.4165 081.4377 14.53847397433700
Epoch (UTC): 18 December 2014 13:00:56
Eccentricity: 0.0049286
inclination: 34.9946°
perigee height: 678 km
apogee height: 748 km
right ascension of ascending node: 83.8883°
argument of perigee: 34.4165°
revolutions per day: 14.53847397
mean anomaly at epoch: 81.4377°
orbit number at epoch: 43370

The dashed part of the orbit path shows where the satellite is in the earth's shadow,  

DLR